TimeEDT,TemperatureF,Dew PointF,Humidity,Sea Level PressureIn,VisibilityMPH,Wind Direction,Wind SpeedMPH,Gust SpeedMPH,PrecipitationIn,Events,Conditions,WindDirDegrees,DateUTC
12:53 AM,50.0,48.0,93,30.27,10.0,NE,6.9,-,N/A,,Clear,40,2013-04-26 04:53:00
1:53 AM,50.0,46.0,86,30.26,10.0,ENE,4.6,-,N/A,,Clear,70,2013-04-26 05:53:00
2:53 AM,46.4,44.6,93,30.27,10.0,NNE,4.6,-,N/A,,Clear,30,2013-04-26 06:53:00
3:53 AM,48.0,45.0,89,30.28,10.0,Calm,Calm,-,N/A,,Clear,0,2013-04-26 07:53:00
4:53 AM,46.9,45.0,93,30.29,10.0,North,3.5,-,N/A,,Clear,360,2013-04-26 08:53:00
5:53 AM,46.0,43.0,89,30.30,10.0,Calm,Calm,-,N/A,,Clear,0,2013-04-26 09:53:00
6:53 AM,46.0,44.1,93,30.32,10.0,Calm,Calm,-,N/A,,Clear,0,2013-04-26 10:53:00
7:53 AM,51.1,46.0,83,30.34,10.0,NE,6.9,-,N/A,,Clear,40,2013-04-26 11:53:00
8:53 AM,57.9,48.0,70,30.37,10.0,NE,6.9,-,N/A,,Clear,40,2013-04-26 12:53:00
9:53 AM,62.1,46.9,58,30.39,10.0,North,6.9,-,N/A,,Clear,10,2013-04-26 13:53:00
10:53 AM,66.9,46.0,47,30.40,10.0,NNE,11.5,-,N/A,,Clear,30,2013-04-26 14:53:00
11:53 AM,70.0,44.1,39,30.40,10.0,NNE,10.4,-,N/A,,Clear,30,2013-04-26 15:53:00
12:53 PM,70.0,43.0,38,30.38,10.0,ESE,9.2,17.3,N/A,,Clear,110,2013-04-26 16:53:00
1:53 PM,71.1,39.9,32,30.37,10.0,East,12.7,18.4,N/A,,Clear,100,2013-04-26 17:53:00
2:53 PM,69.1,43.0,39,30.37,10.0,SE,12.7,17.3,N/A,,Clear,130,2013-04-26 18:53:00
3:53 PM,69.1,43.0,39,30.35,10.0,ESE,10.4,17.3,N/A,,Clear,120,2013-04-26 19:53:00
4:53 PM,66.9,30.9,26,30.35,10.0,ESE,11.5,18.4,N/A,,Clear,110,2013-04-26 20:53:00
5:53 PM,66.0,35.1,32,30.34,10.0,ESE,11.5,-,N/A,,Clear,110,2013-04-26 21:53:00
6:53 PM,63.0,37.9,40,30.34,10.0,East,9.2,-,N/A,,Clear,90,2013-04-26 22:53:00
7:53 PM,60.1,44.1,55,30.36,10.0,East,5.8,-,N/A,,Clear,90,2013-04-26 23:53:00
8:53 PM,57.9,46.0,65,30.38,10.0,Calm,Calm,-,N/A,,Clear,0,2013-04-27 00:53:00
9:53 PM,57.9,45.0,62,30.39,10.0,East,6.9,-,N/A,,Clear,100,2013-04-27 01:53:00
10:53 PM,57.0,48.0,72,30.39,10.0,Variable,3.5,-,N/A,,Clear,0,2013-04-27 02:53:00
11:53 PM,51.1,46.9,86,30.38,10.0,NE,3.5,-,N/A,,Clear,40,2013-04-27 03:53:00